NV7SW Weather Reports


time (UTC)temp
C
wind
direction
speed
KPH
gust
KPH
rain 1hr
cm
rain 24hr
cm
rain mn
cm
humidity
%
barometer
mb
20260903010004 18 271 11.3 24.1 0.00 0.00 0.00 20 1005.7
20260903004503 19 276 12.9 24.1 0.00 0.00 0.00 19 1005.6
20260903003002 19 243 12.9 22.5 0.00 0.00 0.00 19 1005.5
20260903001502 19 290 8.0 22.5 0.00 0.00 0.00 19 1005.4
20260903000002 20 244 9.7 20.9 0.00 0.00 0.00 18 1005.2
20260902234601 20 267 8.0 16.1 0.00 0.00 0.00 18 1005.2
20260902233100 20 264 12.9 30.6 0.00 0.00 0.00 18 1005.3
20260902231600 20 228 11.3 25.7 0.00 0.00 0.00 16 1005.2
20260902230059 20 277 17.7 27.4 0.00 0.00 0.00 17 1005.5
20260902224559 21 251 19.3 29.0 0.00 0.00 0.00 17 1005.5
20260902223113 20 225 16.1 27.4 0.00 0.00 0.00 18 1005.5
20260902221616 20 281 16.1 29.0 0.00 0.00 0.00 17 1005.6
20260902220057 20 176 9.7 19.3 0.00 0.00 0.00 18 1005.6
20260902214552 20 235 14.5 25.7 0.00 0.00 0.00 18 1005.6
20260902213100 20 238 14.5 30.6 0.00 0.00 0.00 19 1005.7
20260902211608 20 236 17.7 30.6 0.00 0.00 0.00 20 1005.9
20260902210055 19 268 16.1 27.4 0.00 0.00 0.00 18 1005.8
20260902204550 19 227 12.9 22.5 0.00 0.00 0.00 17 1005.7
20260902203051 19 257 11.3 30.6 0.00 0.00 0.00 18 1005.8
20260902201609 20 217 19.3 29.0 0.00 0.00 0.00 17 1005.9
20260902200052 20 211 14.5 32.2 0.00 0.00 0.00 17 1005.9
20260902194545 19 186 14.5 35.4 0.00 0.00 0.00 19 1006.0
20260902193046 19 219 20.9 32.2 0.00 0.00 0.00 18 1006.1
20260902191548 19 180 12.9 27.4 0.00 0.00 0.00 19 1006.2
20260902190041 18 177 16.1 29.0 0.00 0.00 0.00 19 1006.3
20260902184539 18 219 20.9 33.8 0.00 0.00 0.00 19 1006.3
20260902183046 18 165 12.9 29.0 0.00 0.00 0.00 20 1006.4
20260902181536 18 182 14.5 24.1 0.00 0.00 0.00 20 1006.4
20260902180033 17 196 6.4 17.7 0.00 0.00 0.00 20 1006.3
20260902174532 17 220 14.5 24.1 0.00 0.00 0.00 20 1006.4
20260902173032 17 202 11.3 25.7 0.00 0.00 0.00 21 1006.5
20260902171528 16 192 6.4 22.5 0.00 0.00 0.00 21 1006.4
20260902170027 16 212 11.3 25.7 0.00 0.00 0.00 21 1006.3
20260902164624 16 184 6.4 19.3 0.00 0.00 0.00 21 1006.2
20260902163024 16 159 6.4 16.1 0.00 0.00 0.00 21 1006.1
20260902161523 16 227 6.4 20.9 0.00 0.00 0.00 22 1006.0
20260902160023 15 360 8.0 19.3 0.00 0.00 0.00 22 1006.1
20260902154531 15 205 11.3 19.3 0.00 0.00 0.00 23 1006.1
20260902153021 14 163 12.9 20.9 0.00 0.00 0.00 23 1006.0
20260902151520 14 206 6.4 16.1 0.00 0.00 0.00 24 1005.9
20260902150018 13 221 6.4 17.7 0.00 0.00 0.00 25 1005.9
20260902144516 12 175 11.3 17.7 0.00 0.00 0.00 26 1005.8
20260902143017 12 181 8.0 17.7 0.00 0.00 0.00 26 1005.5
20260902141522 12 185 9.7 17.7 0.00 0.00 0.00 25 1005.2
20260902140013 12 213 9.7 19.3 0.00 0.00 0.00 24 1005.2
20260902134508 12 204 11.3 16.1 0.00 0.00 0.00 23 1005.0
20260902133007 12 234 11.3 29.0 0.00 0.00 0.00 23 1004.9
20260902131505 11 316 6.4 12.9 0.00 0.00 0.00 24 1004.8
20260902124605 13 213 9.7 14.5 0.00 0.00 0.00 21 1004.4
20260902123055 14 250 4.8 32.2 0.00 0.00 0.00 20 1004.2
20260902121558 13 167 11.3 24.1 0.00 0.00 0.00 21 1004.0
20260902120050 13 236 12.9 22.5 0.00 0.00 0.00 23 1004.0
20260902114546 13 242 6.4 14.5 0.00 0.00 0.00 23 1003.6
20260902113045 14 154 4.8 17.7 0.00 0.00 0.00 22 1003.3
20260902111542 14 187 3.2 22.5 0.00 0.00 0.00 22 1003.1
20260902110039 14 189 12.9 19.3 0.00 0.00 0.00 23 1003.0
20260902104544 14 209 6.4 16.1 0.00 0.00 0.00 23 1002.8
20260902103043 15 259 9.7 24.1 0.00 0.00 0.00 22 1002.5
20260902101542 15 228 16.1 25.7 0.00 0.00 0.00 22 1002.1
20260902100030 14 240 9.7 17.7 0.00 0.00 0.00 23 1002.1
20260902094530 14 217 4.8 14.5 0.00 0.00 0.00 24 1002.1
20260902093028 15 209 9.7 20.9 0.00 0.00 0.00 23 1002.1
20260902091527 15 196 6.4 14.5 0.00 0.00 0.00 25 1001.9
20260902090022 15 235 8.0 19.3 0.00 0.00 0.00 25 1002.0
20260902084533 15 170 12.9 22.5 0.00 0.00 0.00 25 1001.9
20260902083022 15 217 3.2 8.0 0.00 0.00 0.00 24 1001.8
20260902081514 15 241 8.0 14.5 0.00 0.00 0.00 23 1001.7
20260902080013 15 202 4.8 9.7 0.00 0.00 0.00 24 1001.5
20260902074511 15 293 3.2 6.4 0.00 0.00 0.00 26 1001.3
20260902073010 16 301 6.4 8.0 0.00 0.00 0.00 23 1001.2
20260902071506 16 270 8.0 12.9 0.00 0.00 0.00 23 1001.2
20260902070007 16 265 3.2 12.9 0.00 0.00 0.00 21 1001.2
20260902064506 16 264 3.2 11.3 0.00 0.00 0.00 22 1001.0
20260902063001 16 272 3.2 8.0 0.00 0.00 0.00 24 1000.9
20260902061501 17 220 1.6 6.4 0.00 0.00 0.00 24 1000.9
20260902060111 17 213 4.8 11.3 0.00 0.00 0.00 21 1000.9
20260902054602 17 186 3.2 9.7 0.00 0.00 0.00 21 1000.8
20260902053059 17 207 0.0 8.0 0.00 0.00 0.00 24 1000.5
20260902051558 17 254 4.8 9.7 0.00 0.00 0.00 26 1000.6
20260902050111 17 275 1.6 6.4 0.00 0.00 0.00 25 1000.7
20260902044608 17 300 3.2 6.4 0.00 0.00 0.00 23 1000.5
20260902043057 17 271 1.6 4.8 0.00 0.00 0.00 23 1000.5
20260902041556 18 299 4.8 6.4 0.00 0.00 0.00 21 1000.5
20260902040058 18 99 0.0 3.2 0.00 0.00 0.00 20 1000.4
20260902034601 19 312 0.0 3.2 0.00 0.00 0.00 20 1000.2
20260902033104 20 313 1.6 6.4 0.00 0.00 0.00 19 1000.0
20260902031554 20 242 0.0 6.4 0.00 0.00 0.00 16 999.9
20260902030054 20 336 1.6 3.2 0.00 0.00 0.00 16 999.6
20260902024601 21 242 0.0 3.2 0.00 0.00 0.00 15 999.5
20260902023100 22 240 0.0 4.8 0.00 0.00 0.00 14 999.5
20260902021555 23 241 3.2 8.0 0.00 0.00 0.00 13 999.4
20260902020052 24 360 8.0 12.9 0.00 0.00 0.00 11 999.5
20260902014550 25 133 11.3 19.3 0.00 0.00 0.00 10 999.5
20260902013049 26 142 12.9 22.5 0.00 0.00 0.00 9 999.5
20260902011548 26 147 9.7 19.3 0.00 0.00 0.00 10 999.7
20260902010047 27 180 17.7 33.8 0.00 0.00 0.00 9 999.8